Wind_Speed
10 6 4 2 4 9 7 5 10 11 16 19 25 39 52 52 53 53 50 51 51 50 49 47 44 43 42 41 42 44 46 50 50 52 54 53 54 57 59 60 62 62 65
4 5 3 4 3 3 6 4 7 9 9 14 22 31 42 48 50 53 53 50 52 51 50 46 49 49 49 49 47 49 52 53 53 55 56 57 61 63 66 68 71 71 75
10 8 4 3 6 7 5 10 10 10 12 14 16 23 29 34 37 39 42 45 47 49 48 48 53 55 56 55 54 57 58 57 57 61 65 68 71 73 74 75 78 81 80
8 10 9 4 5 2 2 7 10 14 15 16 19 24 26 29 33 37 37 38 42 46 50 53 56 59 60 62 63 65 66 67 66 67 70 75 76 77 79 80 80 77 79
13 10 6 5 4 1 2 5 8 12 14 18 22 26 31 34 37 37 40 43 44 49 52 55 58 60 63 64 64 65 69 69 72 75 76 76 80 78 77 78 77 73 66
22 20 16 16 10 9 7 7 13 17 19 22 25 27 29 34 39 43 45 47 49 52 54 58 61 63 65 66 68 69 71 73 77 77 79 79 79 78 74 71 71 71 70
25 25 22 24 21 18 18 17 15 19 20 22 23 29 37 40 41 44 48 50 53 57 59 62 65 67 70 72 73 75 76 76 76 78 78 77 74 72 74 72 76 74 66
23 24 24 27 26 29 28 23 24 21 26 24 28 27 32 34 36 40 43 47 52 58 63 64 67 70 71 73 72 73 73 74 75 74 75 78 77 76 75 74 73 73 71
22 22 26 29 32 33 36 35 29 29 31 30 32 33 36 36 38 38 41 48 53 54 61 65 67 70 73 73 73 73 74 75 73 73 76 78 74 73 73 72 75 79 78
25 27 29 30 33 34 33 34 36 34 33 38 39 38 41 43 48 51 46 52 50 53 61 66 69 74 76 76 75 76 79 75 76 79 75 72 74 75 80 85 85 85 88
36 36 34 35 35 37 39 39 39 43 48 48 47 48 52 50 49 51 51 51 53 55 56 58 66 70 73 73 75 76 75 77 76 75 77 78 81 85 90 94 96 97 95
34 34 37 40 43 45 47 49 49 51 51 50 51 51 53 53 52 53 52 55 56 61 61 60 58 67 73 73 73 75 77 78 82 83 83 87 92 93 96 99 96 95 99
41 44 47 49 52 53 52 53 50 51 51 51 51 52 54 54 55 51 56 61 62 63 66 62 60 64 69 72 78 80 80 83 87 90 93 96 99 102 99 100 99 100 103
39 41 45 48 50 50 50 52 53 52 52 52 52 51 50 50 51 51 53 56 63 69 70 73 74 73 73 76 80 83 86 90 94 96 95 96 99 100 103 99 105 107 109
47 49 51 52 54 53 54 53 55 56 55 53 50 48 49 50 53 58 58 60 65 68 68 68 72 77 82 85 90 91 93 95 96 95 97 100 102 105 108 110 111 110 106
53 55 56 57 59 58 56 53 52 54 54 54 54 54 56 57 60 64 69 74 77 77 80 81 81 86 89 89 91 95 99 105 108 112 114 118 121 121 120 115 108 104 106
59 59 61 62 61 59 57 52 51 54 56 58 59 60 62 64 68 70 75 81 86 91 94 97 98 99 99 102 105 109 111 113 111 109 107 107 109 110 108 106 105 109 112
63 64 64 62 60 58 58 55 53 54 55 57 58 61 63 65 65 67 71 75 79 81 83 86 90 93 96 98 100 103 105 106 107 108 110 110 112 114 115 115 117 117 119
65 66 64 61 60 60 59 56 55 57 57 58 58 62 64 62 61 62 63 66 69 74 80 83 88 90 93 97 100 104 107 110 113 114 114 115 115 117 118 119 121 123 123
67 67 63 64 63 62 59 57 58 59 59 60 62 65 64 62 63 64 67 69 73 76 80 84 87 92 96 99 102 105 107 110 112 115 117 118 119 121 122 122 122 123 122
68 64 64 64 63 62 60 60 60 61 63 64 65 65 65 66 68 70 73 78 82 86 89 92 94 98 102 105 109 111 111 111 110 109 109 109 108 108 107 106 105 104 101
65 64 62 63 63 61 62 61 63 65 66 67 66 68 70 73 75 78 82 86 88 90 94 98 102 106 109 109 104 101 97 94 90 87 86 85 84 85 85 85 84 83 82
64 63 63 61 60 62 63 64 66 69 69 71 74 76 78 81 84 87 89 92 96 99 103 106 105 95 89 86 81 78 76 74 73 71 70 69 70 70 71 71 70 68 66
62 60 60 61 63 64 66 67 68 69 72 76 79 81 84 87 89 92 96 99 103 105 97 88 83 77 73 69 66 65 64 64 63 61 60 60 60 59 60 59 58 57 57
60 61 62 63 65 66 67 69 72 75 78 81 84 87 88 90 94 99 104 104 94 87 79 74 70 65 64 63 62 60 58 55 53 52 50 50 51 50 50 49 49 48 47
61 62 64 66 66 68 71 75 79 82 84 86 87 89 93 98 103 102 93 87 81 75 68 64 63 61 60 57 54 50 48 46 44 42 41 41 41 42 42 42 42 42 42
Wind_Direction
356 39 37 321 141 126 102 169 171 183 193 193 198 201 204 206 211 219 223 229 233 237 241 248 252 255 258 261 264 266 267 266 266 276 280 278 276 274 275 278 282 285 289
312 10 99 67 87 161 183 155 182 182 192 203 206 206 212 220 225 228 230 233 237 243 248 251 253 256 258 260 265 268 270 270 271 274 271 275 275 278 279 282 285 287 289
205 247 240 70 88 108 162 178 183 188 190 200 203 212 219 224 229 234 237 243 247 247 248 251 252 256 260 265 268 272 273 272 270 267 270 275 277 278 281 283 286 289 290
184 145 81 152 203 161 166 208 214 210 214 216 217 215 219 228 233 235 238 245 249 249 249 251 257 260 263 267 269 270 270 272 272 273 272 274 277 281 285 287 288 290 290
205 182 206 263 331 317 159 214 228 227 229 234 230 228 229 228 228 233 240 243 245 246 249 253 258 262 265 268 269 270 271 273 272 274 279 281 282 285 286 286 287 287 285
231 232 229 247 263 251 250 279 245 221 225 227 227 233 238 236 235 236 239 242 246 250 253 256 258 260 262 264 265 269 272 275 277 281 283 283 283 284 283 280 279 280 288
235 244 248 255 260 260 254 257 237 233 235 229 231 237 237 238 242 244 246 246 247 250 253 256 258 261 264 268 271 274 276 277 277 278 278 278 276 278 283 287 287 286 286
250 252 253 256 260 262 260 262 255 241 237 236 245 254 241 245 249 252 252 254 256 257 256 257 259 262 264 266 267 268 270 271 272 272 276 280 283 283 284 284 285 286 289
261 263 269 260 261 264 254 257 259 255 253 248 252 255 258 258 262 260 255 254 255 258 257 258 260 263 265 268 270 270 273 275 278 280 279 279 280 282 283 284 286 287 291
254 269 274 273 269 265 267 260 263 270 270 268 270 268 270 270 269 273 266 270 267 265 263 262 263 263 266 270 274 275 276 279 278 280 279 278 279 283 288 290 292 293 293
264 269 268 272 278 279 277 274 280 276 275 277 275 276 277 274 271 272 271 270 267 266 268 270 269 266 267 270 273 275 277 282 284 281 281 281 282 283 289 288 288 289 290
274 277 279 279 280 279 278 276 276 277 278 279 278 276 278 278 278 273 275 274 273 270 271 275 273 272 269 267 275 277 275 275 278 281 282 284 283 284 284 288 289 288 287
278 278 279 280 280 281 281 280 279 277 274 273 272 276 276 278 279 277 279 277 274 275 278 281 277 276 275 272 271 275 276 276 276 279 282 282 284 286 287 287 290 291 291
300 296 292 290 290 289 286 284 280 278 276 277 278 277 277 275 271 278 277 275 272 281 284 281 279 277 273 273 273 275 277 278 280 282 283 284 285 284 289 288 289 291 290
301 300 300 298 296 292 290 289 286 284 283 284 282 281 280 278 274 272 272 276 276 276 276 278 281 282 282 279 278 278 278 280 281 279 278 281 284 285 288 290 289 290 290
299 300 299 299 298 296 293 289 289 286 283 281 280 280 280 279 275 272 268 266 265 265 266 266 266 269 272 274 275 275 275 275 275 277 278 280 281 282 284 287 286 282 281
296 297 297 297 298 296 294 291 289 285 282 280 281 281 281 280 280 277 271 266 264 265 267 269 270 271 271 271 271 272 275 277 280 280 280 281 282 282 282 281 280 279 280
294 295 297 295 295 293 294 294 290 287 286 284 283 284 285 286 284 280 275 272 268 268 269 270 271 272 273 273 274 274 275 275 275 275 275 276 277 278 277 276 278 280 281
292 294 295 293 292 293 295 293 289 289 288 288 290 292 293 292 291 287 283 281 279 276 274 273 274 274 275 275 275 275 275 275 276 277 277 277 278 279 279 280 281 283 285
292 293 291 291 292 294 295 290 290 289 289 291 291 294 296 293 292 291 290 288 288 287 286 284 282 280 279 277 277 277 277 278 278 278 279 279 279 280 280 280 281 283 284
291 290 291 291 293 293 291 291 290 291 292 293 294 294 293 290 288 287 286 285 285 284 284 284 283 283 284 285 286 286 285 284 283 282 281 280 279 279 279 280 280 282 284
288 289 290 292 293 291 292 292 292 294 295 295 295 293 292 290 290 290 290 291 292 291 290 290 290 290 290 290 288 287 286 284 284 283 282 280 280 280 280 280 281 282 284
287 289 292 291 290 291 292 294 295 296 296 296 296 295 293 293 294 295 295 294 294 293 292 293 294 293 291 290 289 288 287 285 284 283 281 280 279 278 279 280 281 282 283
288 289 288 289 289 292 293 293 294 294 295 295 295 295 295 294 295 296 296 296 297 298 299 298 298 296 295 294 292 292 291 289 287 285 282 280 279 278 278 280 281 281 281
286 288 289 290 291 291 291 292 293 293 295 296 296 296 297 298 299 299 299 300 301 301 301 301 300 299 299 299 298 297 295 292 290 286 282 279 277 277 278 278 280 280 281
288 288 288 289 291 292 292 293 294 295 297 298 298 299 301 301 301 302 303 303 304 303 303 302 302 302 302 301 300 299 298 296 293 289 284 280 278 278 278 279 281 282 283
Height
10833 10831 10830 10826 10825 10824 10825 10824 10825 10827 10830 10834 10838 10846 10853 10861 10867 10872 10877 10881 10884 10886 10888 10890 10890 10890 10892 10893 10894 10894 10894 10893 10895 10889 10887 10885 10882 10880 10877 10873 10870 10867 10862
10833 10832 10830 10828 10826 10826 10827 10828 10829 10831 10834 10838 10841 10846 10853 10860 10865 10868 10871 10875 10877 10880 10881 10883 10882 10882 10882 10883 10883 10883 10883 10882 10883 10880 10874 10871 10867 10865 10863 10860 10855 10852 10848
10831 10831 10830 10829 10827 10827 10828 10828 10830 10832 10835 10838 10842 10846 10851 10856 10859 10862 10865 10867 10869 10871 10873 10873 10872 10871 10872 10872 10873 10872 10871 10870 10871 10865 10861 10856 10852 10849 10847 10845 10840 10836 10832
10830 10829 10830 10829 10829 10828 10828 10829 10830 10831 10834 10836 10839 10843 10846 10850 10853 10856 10859 10861 10862 10863 10864 10863 10863 10862 10862 10861 10859 10858 10856 10855 10855 10850 10845 10840 10839 10836 10832 10828 10822 10817 10812
10828 10828 10828 10828 10829 10827 10827 10827 10829 10831 10832 10834 10836 10838 10840 10843 10846 10849 10851 10853 10854 10854 10854 10854 10852 10851 10849 10848 10845 10843 10840 10839 10836 10833 10830 10825 10821 10817 10813 10809 10804 10801 10795
10824 10824 10825 10825 10826 10826 10826 10825 10825 10826 10828 10830 10832 10834 10836 10837 10838 10840 10841 10842 10842 10842 10842 10841 10840 10838 10835 10832 10829 10828 10825 10824 10819 10817 10814 10808 10802 10798 10795 10791 10786 10783 10781
10818 10819 10820 10820 10820 10821 10821 10821 10821 10822 10823 10824 10824 10827 10827 10828 10830 10831 10831 10831 10830 10829 10828 10826 10824 10821 10819 10817 10814 10811 10808 10806 10802 10797 10794 10790 10785 10780 10776 10773 10768 10764 10760
10813 10814 10814 10814 10814 10814 10815 10815 10816 10817 10817 10818 10818 10819 10820 10820 10820 10819 10819 10818 10817 10816 10813 10810 10808 10806 10804 10801 10798 10795 10791 10788 10785 10781 10776 10771 10767 10763 10758 10754 10749 10744 10742
10806 10806 10807 10807 10805 10806 10807 10807 10808 10809 10810 10810 10810 10810 10809 10808 10809 10807 10806 10805 10803 10800 10797 10795 10792 10789 10785 10782 10779 10776 10772 10768 10764 10760 10757 10753 10749 10744 10739 10735 10731 10725 10720
10800 10799 10800 10800 10799 10799 10799 10799 10798 10797 10797 10797 10796 10796 10795 10793 10792 10791 10789 10787 10784 10782 10780 10775 10772 10769 10765 10762 10760 10755 10751 10747 10743 10740 10736 10733 10728 10723 10718 10712 10706 10702 10698
10794 10792 10792 10792 10790 10788 10788 10787 10785 10785 10785 10784 10781 10779 10778 10777 10775 10773 10769 10768 10765 10763 10760 10756 10752 10749 10745 10742 10739 10735 10730 10725 10721 10717 10713 10709 10703 10699 10699 10689 10685 10679 10673
10784 10783 10781 10780 10779 10778 10777 10776 10775 10773 10770 10768 10765 10763 10760 10757 10755 10754 10751 10748 10746 10743 10739 10737 10733 10730 10727 10724 10719 10714 10711 10705 10699 10695 10691 10685 10681 10676 10674 10669 10659 10654 10651
10775 10773 10770 10767 10765 10763 10761 10759 10757 10756 10754 10753 10749 10746 10742 10738 10736 10733 10732 10728 10724 10722 10718 10715 10712 10710 10706 10703 10699 10694 10689 10684 10680 10674 10670 10666 10659 10652 10645 10642 10634 10626 10618
10762 10760 10757 10754 10750 10746 10743 10740 10738 10735 10735 10734 10732 10728 10725 10721 10720 10717 10714 10710 10704 10700 10697 10694 10690 10688 10684 10679 10674 10670 10666 10660 10654 10650 10644 10639 10632 10624 10619 10611 10606 10601 10593
10749 10747 10744 10740 10736 10732 10727 10723 10720 10718 10715 10713 10711 10710 10708 10706 10704 10702 10699 10693 10687 10683 10679 10674 10668 10663 10659 10656 10650 10646 10641 10636 10630 10624 10619 10614 10607 10600 10594 10587 10579 10572 10564
10736 10732 10729 10726 10722 10717 10712 10708 10705 10702 10700 10697 10695 10692 10689 10686 10683 10680 10678 10674 10669 10664 10659 10654 10650 10645 10640 10634 10628 10622 10616 10609 10604 10597 10593 10586 10580 10573 10566 10560 10553 10547 10541
10721 10717 10713 10709 10705 10700 10696 10692 10689 10686 10683 10680 10677 10673 10670 10666 10662 10658 10652 10648 10643 10638 10632 10626 10622 10618 10612 10605 10600 10594 10589 10581 10573 10565 10560 10554 10549 10543 10536 10532 10526 10520 10513
10705 10701 10697 10692 10688 10683 10679 10675 10672 10668 10665 10661 10657 10653 10648 10643 10637 10631 10625 10620 10615 10610 10606 10600 10594 10587 10582 10576 10570 10563 10557 10551 10546 10538 10533 10526 10521 10516 10510 10503 10498 10492 10485
10689 10684 10680 10675 10671 10667 10663 10658 10654 10650 10646 10642 10637 10631 10625 10619 10613 10607 10602 10596 10591 10586 10580 10575 10567 10561 10554 10547 10539 10532 10525 10519 10512 10506 10499 10493 10488 10482 10476 10471 10466 10459 10452
10672 10667 10663 10658 10653 10649 10646 10641 10637 10633 10628 10623 10618 10611 10604 10598 10592 10587 10581 10575 10569 10561 10554 10547 10540 10530 10523 10513 10505 10497 10491 10484 10476 10470 10464 10459 10454 10447 10442 10436 10431 10426 10418
10655 10651 10646 10640 10636 10631 10627 10623 10618 10614 10609 10604 10597 10591 10585 10579 10574 10567 10561 10553 10545 10536 10526 10517 10509 10500 10490 10480 10468 10460 10452 10443 10437 10429 10423 10419 10415 10409 10404 10400 10395 10392 10386
10636 10633 10630 10622 10617 10614 10609 10604 10598 10593 10588 10582 10576 10569 10563 10557 10549 10541 10533 10525 10516 10506 10495 10485 10474 10463 10452 10440 10430 10418 10410 10402 10397 10392 10387 10383 10380 10377 10373 10370 10368 10365 10362
10620 10616 10612 10607 10604 10596 10591 10585 10579 10572 10566 10560 10554 10546 10539 10531 10523 10514 10505 10495 10485 10474 10463 10451 10439 10425 10415 10405 10395 10387 10380 10374 10368 10363 10359 10356 10354 10351 10348 10346 10345 10343 10341
10604 10600 10596 10591 10585 10581 10574 10569 10563 10557 10550 10542 10532 10524 10515 10506 10497 10486 10476 10464 10452 10439 10425 10415 10403 10392 10385 10377 10370 10362 10356 10349 10343 10339 10335 10332 10331 10330 10328 10327 10325 10324 10322
10587 10583 10578 10574 10568 10564 10557 10550 10544 10536 10528 10520 10511 10501 10491 10480 10469 10457 10444 10431 10418 10408 10398 10388 10378 10369 10361 10353 10346 10340 10333 10327 10321 10318 10315 10313 10312 10311 10311 10310 10309 10308 10306
10570 10566 10561 10556 10550 10543 10536 10529 10521 10513 10505 10494 10485 10475 10465 10454 10441 10427 10413 10402 10392 10383 10375 10367 10358 10350 10342 10334 10326 10321 10315 10309 10305 10301 10298 10297 10297 10296 10296 10296 10295 10293 10292